TimeEDT,TemperatureF,Dew PointF,Humidity,Sea Level PressureIn,VisibilityMPH,Wind Direction,Wind SpeedMPH,Gust SpeedMPH,PrecipitationIn,Events,Conditions,WindDirDegrees,DateUTC
12:51 AM,69.1,66.0,90,29.64,6.0,Calm,Calm,-,N/A,,Scattered Clouds,0,2013-06-28 04:51:00
1:51 AM,69.1,66.0,90,29.65,8.0,Calm,Calm,-,N/A,,Mostly Cloudy,0,2013-06-28 05:51:00
1:54 AM,69.1,66.0,90,29.66,8.0,Calm,Calm,-,N/A,,Mostly Cloudy,0,2013-06-28 05:54:00
2:51 AM,66.9,64.0,90,29.65,5.0,WSW,4.6,-,N/A,,Scattered Clouds,240,2013-06-28 06:51:00
3:51 AM,66.0,64.0,93,29.63,5.0,Calm,Calm,-,N/A,,Scattered Clouds,0,2013-06-28 07:51:00
4:32 AM,64.9,63.0,93,29.63,4.0,WSW,4.6,-,N/A,,Scattered Clouds,240,2013-06-28 08:32:00
4:37 AM,64.9,63.0,93,29.63,1.5,WSW,3.5,-,N/A,,Scattered Clouds,250,2013-06-28 08:37:00
4:51 AM,64.9,63.0,93,29.61,1.0,SW,3.5,-,N/A,,Scattered Clouds,230,2013-06-28 08:51:00
5:31 AM,66.0,64.0,93,29.63,1.2,Calm,Calm,-,N/A,,Overcast,0,2013-06-28 09:31:00
5:51 AM,64.9,63.0,93,29.61,1.2,SSW,3.5,-,N/A,,Overcast,200,2013-06-28 09:51:00
6:32 AM,66.0,64.0,93,29.62,0.5,SW,3.5,-,N/A,Fog,Fog,220,2013-06-28 10:32:00
6:42 AM,66.0,64.0,93,29.62,0.2,SSW,3.5,-,N/A,Fog,Fog,210,2013-06-28 10:42:00
6:51 AM,66.0,64.0,93,29.61,0.2,SW,4.6,-,N/A,Fog,Fog,220,2013-06-28 10:51:00
7:39 AM,66.9,64.9,93,29.61,0.5,SW,5.8,-,N/A,Fog,Fog,220,2013-06-28 11:39:00
7:51 AM,66.9,64.9,93,29.60,0.5,SW,4.6,-,N/A,Fog,Fog,230,2013-06-28 11:51:00
8:08 AM,68.0,66.0,93,29.61,2.0,SW,3.5,-,N/A,,Overcast,230,2013-06-28 12:08:00
8:20 AM,68.0,66.0,93,29.61,3.0,West,3.5,-,N/A,,Overcast,260,2013-06-28 12:20:00
8:51 AM,70.0,66.9,90,29.60,7.0,Variable,3.5,-,N/A,,Mostly Cloudy,0,2013-06-28 12:51:00
8:58 AM,70.0,66.9,90,29.61,8.0,SW,4.6,-,N/A,,Mostly Cloudy,220,2013-06-28 12:58:00
9:35 AM,72.0,66.9,84,29.60,10.0,West,5.8,-,N/A,,Mostly Cloudy,280,2013-06-28 13:35:00
9:51 AM,75.0,66.9,76,29.58,10.0,West,6.9,-,N/A,,Mostly Cloudy,280,2013-06-28 13:51:00
10:42 AM,75.9,64.9,69,29.59,10.0,West,10.4,-,N/A,,Mostly Cloudy,270,2013-06-28 14:42:00
10:51 AM,75.9,64.9,69,29.58,10.0,West,9.2,-,N/A,,Mostly Cloudy,280,2013-06-28 14:51:00
11:51 AM,77.0,64.9,66,29.57,10.0,WNW,10.4,-,N/A,,Mostly Cloudy,290,2013-06-28 15:51:00
12:51 PM,78.1,63.0,60,29.57,10.0,NW,9.2,-,N/A,,Mostly Cloudy,310,2013-06-28 16:51:00
1:51 PM,78.1,62.1,58,29.55,10.0,WNW,10.4,18.4,N/A,,Scattered Clouds,300,2013-06-28 17:51:00
2:51 PM,78.1,61.0,56,29.55,10.0,NW,16.1,-,N/A,,Scattered Clouds,320,2013-06-28 18:51:00
3:51 PM,75.9,61.0,60,29.55,10.0,NNW,11.5,-,N/A,,Scattered Clouds,330,2013-06-28 19:51:00
4:12 PM,73.9,64.9,73,29.58,6.0,WNW,12.7,23.0,0.00,Rain-Thunderstorm,Light Thunderstorms and Rain,290,2013-06-28 20:12:00
4:34 PM,69.1,63.0,81,29.57,10.0,West,8.1,-,0.02,Rain-Thunderstorm,Light Thunderstorms and Rain,270,2013-06-28 20:34:00
4:51 PM,69.1,64.0,84,29.57,10.0,West,6.9,-,0.02,,Overcast,270,2013-06-28 20:51:00
5:51 PM,70.0,64.9,84,29.55,10.0,West,5.8,-,0.04,,Mostly Cloudy,270,2013-06-28 21:51:00
6:51 PM,73.9,62.1,66,29.55,10.0,WNW,8.1,-,N/A,,Mostly Cloudy,300,2013-06-28 22:51:00
7:51 PM,72.0,60.1,66,29.57,10.0,WNW,9.2,-,N/A,,Mostly Cloudy,300,2013-06-28 23:51:00
8:51 PM,68.0,57.9,70,29.57,10.0,WSW,11.5,-,N/A,,Mostly Cloudy,250,2013-06-29 00:51:00
9:51 PM,64.0,57.9,80,29.57,10.0,WSW,6.9,-,N/A,,Mostly Cloudy,240,2013-06-29 01:51:00
10:51 PM,64.0,59.0,84,29.58,10.0,SW,4.6,-,N/A,,Mostly Cloudy,230,2013-06-29 02:51:00
11:51 PM,63.0,60.1,90,29.57,10.0,SW,6.9,-,N/A,,Scattered Clouds,230,2013-06-29 03:51:00